Location: Go�ngahuizen
(53.0821°N, 5.8849°E)
Time: 07:22:27
(UTC+00:00)

Cosmos 921 Rocket - Pass Details

Date: 09 April 2020
Orbit: 572 x 632 km, 75.8° (Epoch: 02 June)

Event Time Altitude Azimuth Distance (km) Brightness Sun altitude
Rises 18:57:45 0° 339° (NNW) 2,794 7.1 -5.3°
Reaches altitude 10° 18:59:59 10° 342° (NNW) 1,890 6.2 -5.6°
Maximum altitude 19:04:09 64° 65° (ENE) 640 3.0 -6.2°
Drops below altitude 10° 19:08:19 10° 147° (SSE) 1,886 5.1 -6.8°
Enters shadow 19:09:46 - 150° (SSE) 2,475 5.7 -7.0°
